Location: Newark
(5.8900°S, 42.6378°W)
Time: 17:40:05
(UTC+00:00)

BEESAT - Visible Passes

Search period start: 23 October 2019 00:00
Search period end: 02 November 2019 00:00
Orbit: 700 x 709 km, 98.6° (Epoch: 23 October)

Date Brightness Start Highest point End Pass type
(mag) Time Alt. Az. Time Alt. Az. Time Alt. Az.
23 Oct ? 06:52:44 10° ESE 06:54:44 12° E 06:56:42 10° NE visible
24 Oct ? 07:33:31 10° SSE 07:38:06 45° ENE 07:42:39 10° N visible
26 Oct ? 07:22:59 10° SE 07:27:16 32° ENE 07:31:30 10° NNE visible
28 Oct ? 07:12:39 10° SE 07:16:26 23° ENE 07:20:12 10° NNE visible
29 Oct ? 07:54:59 10° SSE 07:59:48 87° ENE 08:04:34 10° NNW visible
30 Oct ? 07:02:34 10° ESE 07:05:36 17° E 07:08:37 10° NE visible
31 Oct ? 07:44:14 10° SSE 07:48:58 62° ENE 07:53:40 10° N visible
01 Nov ? 06:53:03 10° E 06:54:45 12° E 06:56:27 10° ENE visible
